Wind_Speed
15 14 14 14 14 13 13 13 13 12 12 12 13 13 14 14 15 15 16 16 16 17 17 17 17 18 20 20 21 22 22 23 23 23 24 24 24 24 24 24 25 26 26
16 15 15 15 14 13 14 13 13 13 12 12 12 11 12 13 14 13 14 14 14 15 15 15 16 16 17 18 19 20 21 22 22 22 22 22 23 23 24 25 26 26 26
15 16 15 15 14 13 13 13 12 12 12 11 11 12 12 13 13 13 13 14 14 14 14 15 15 16 17 18 19 19 19 20 21 22 22 23 23 23 23 25 26 27 27
15 15 15 15 14 13 12 12 12 12 12 12 11 12 13 13 14 14 14 14 14 14 14 14 15 16 17 18 18 18 18 19 20 21 22 22 23 22 22 22 23 24 24
15 15 15 14 14 13 13 13 12 12 12 12 12 13 13 14 14 14 15 15 14 14 14 15 16 16 16 17 17 18 18 18 18 19 19 20 21 21 22 22 22 23 24
16 15 14 14 13 13 12 12 13 13 12 12 13 13 13 14 14 15 15 15 14 14 15 15 16 16 15 16 17 17 17 18 18 19 19 19 20 20 21 21 22 23 24
16 15 14 14 14 13 13 12 13 13 13 12 13 13 14 14 14 14 15 14 14 14 15 15 15 15 15 15 16 17 17 17 18 19 20 20 20 21 22 22 23 23 24
16 14 14 14 14 14 14 14 14 13 13 13 12 13 14 14 14 14 14 14 13 14 14 14 15 14 15 15 15 16 17 17 17 18 19 19 20 21 21 21 21 22 22
17 15 14 13 13 13 13 12 12 12 12 12 12 12 12 13 13 14 13 12 12 13 14 14 14 15 15 15 15 15 15 16 16 17 17 18 19 19 20 20 21 21 22
17 16 15 15 14 13 12 12 12 11 11 11 12 12 12 12 13 13 12 12 12 13 13 13 14 14 14 14 14 14 14 15 16 17 18 18 19 19 19 20 21 22 23
16 16 15 15 15 15 14 13 13 13 12 12 12 13 13 12 12 12 11 12 13 12 13 13 14 13 14 14 13 13 14 15 16 17 17 18 18 19 20 21 22 22 23
17 16 16 16 16 15 14 14 14 13 12 12 12 12 12 12 11 11 11 11 11 12 12 13 13 13 13 12 12 13 14 15 15 16 17 17 18 19 20 21 21 21 22
17 17 17 16 16 15 15 15 14 14 12 12 12 12 12 11 11 11 12 12 12 12 13 13 13 13 12 12 13 14 14 14 15 16 16 17 18 19 19 20 20 20 21
17 17 16 16 16 15 15 15 15 15 14 13 12 12 12 12 12 12 12 12 13 13 13 13 12 13 13 13 13 14 14 15 15 15 15 16 17 18 18 19 20 21 22
16 16 16 15 15 15 15 14 14 15 14 14 13 13 12 12 12 13 13 13 13 13 13 12 12 13 13 13 14 14 15 15 15 15 15 17 18 18 19 20 22 22 23
16 16 16 16 16 16 15 14 13 14 14 14 14 13 13 13 13 13 13 13 14 14 14 14 14 14 15 15 16 16 16 16 16 16 17 18 19 20 21 22 22 23 24
16 15 16 15 15 15 15 15 14 14 14 14 14 13 13 13 13 13 14 14 14 14 14 14 15 15 16 17 17 16 17 17 17 17 17 18 20 21 22 23 23 24 23
17 15 15 15 16 16 16 15 15 15 15 15 14 14 14 14 14 15 15 15 15 15 15 15 15 16 17 17 17 17 17 18 18 19 20 20 21 22 23 24 24 24 24
17 16 16 16 17 17 17 17 16 16 15 15 15 15 15 15 15 15 15 15 15 15 15 16 16 17 17 17 17 18 18 19 19 20 21 21 22 22 23 24 24 24 25
17 17 17 17 18 17 17 17 17 17 16 16 16 16 16 16 16 16 16 17 16 16 16 16 17 17 17 17 17 18 19 20 20 21 21 22 22 22 23 23 23 24 25
18 18 18 17 17 17 16 16 17 17 17 17 18 17 17 18 18 18 18 17 17 17 17 17 17 17 17 18 19 19 19 20 20 21 21 22 22 22 23 23 24 24 25
18 18 18 17 17 17 17 18 18 18 18 19 20 19 19 19 19 19 19 18 18 18 18 18 18 18 18 19 19 20 20 21 21 22 22 23 23 23 24 24 25 25 26
17 18 18 17 18 18 18 18 18 18 18 19 19 19 19 19 19 19 19 18 19 20 20 20 20 20 21 21 21 21 21 22 22 23 23 23 24 24 24 25 25 25 26
19 19 19 19 18 18 18 18 18 18 18 18 18 18 19 19 19 19 19 20 20 20 21 21 20 21 21 22 22 23 24 24 24 25 25 25 25 25 25 24 24 25 25
19 19 20 20 20 19 19 20 19 19 18 18 19 19 19 20 20 19 19 19 20 21 21 21 21 22 22 23 23 23 24 24 25 25 25 25 26 25 24 24 24 25 26
20 19 20 20 21 21 20 20 19 18 18 18 19 19 20 20 19 19 19 20 21 21 21 21 22 23 23 24 24 25 25 25 25 25 25 25 25 25 24 24 24 25 25
Wind_Direction
285 287 290 293 290 290 290 292 289 288 292 295 291 291 291 291 290 288 286 282 281 279 278 276 273 274 273 272 271 271 271 269 268 268 267 268 271 270 270 269 268 268 270
282 284 285 289 289 290 291 288 287 290 293 295 297 298 299 299 298 296 293 290 287 284 279 276 276 278 277 274 273 273 271 270 269 269 270 270 271 271 270 270 270 270 271
281 285 286 288 287 287 287 286 287 289 292 292 293 297 298 299 299 299 297 294 289 286 284 283 282 281 279 277 275 275 274 274 272 271 271 270 272 273 272 272 273 273 272
279 283 285 286 286 286 284 284 285 286 287 288 289 294 297 298 300 298 298 297 291 287 287 288 287 287 284 281 277 275 275 275 273 272 271 272 274 274 275 275 274 274 273
277 280 282 283 283 283 282 282 284 287 287 288 287 291 296 299 302 301 299 298 295 291 290 291 290 289 287 285 281 277 274 274 273 272 272 274 275 276 279 279 278 277 275
274 277 276 277 279 281 283 285 285 288 288 287 287 289 293 297 301 301 299 301 298 294 294 295 293 292 289 288 284 278 277 276 275 274 273 276 278 280 280 279 280 279 278
269 274 273 270 273 276 280 285 285 285 287 286 287 290 294 296 299 299 300 300 300 299 298 297 295 292 290 288 286 282 281 280 278 277 277 278 280 282 283 283 283 283 281
266 270 270 269 269 273 277 281 282 282 283 286 289 292 296 297 298 298 298 301 303 304 303 303 301 297 293 289 284 284 284 284 284 283 283 282 281 283 286 287 286 286 285
263 264 266 268 269 269 273 278 282 282 282 284 288 292 296 296 296 296 299 299 300 304 306 306 304 301 297 293 289 286 286 285 286 284 285 284 284 284 286 288 289 287 286
261 262 265 268 267 268 271 276 281 281 283 285 289 292 294 294 295 298 301 300 301 303 306 305 304 303 301 297 294 288 288 289 289 287 287 287 287 286 287 289 290 289 289
258 258 261 265 266 266 271 277 280 278 279 283 287 290 291 292 296 298 296 298 302 303 304 306 308 307 306 302 298 292 291 291 293 292 291 291 291 290 290 291 292 292 291
258 255 259 261 262 263 268 276 281 278 280 284 288 289 290 291 295 296 295 299 300 302 304 307 310 310 309 306 303 299 297 297 297 297 297 297 297 296 295 294 294 295 294
257 255 256 259 259 260 264 270 275 277 279 286 287 288 289 291 293 296 296 295 298 301 304 308 310 311 311 309 308 307 303 302 300 300 300 300 300 299 297 297 298 298 297
256 254 252 254 256 258 261 266 271 272 273 279 281 286 290 291 293 298 300 299 300 304 306 309 310 312 312 310 310 310 309 306 304 303 303 302 302 303 302 301 301 300 299
252 251 252 252 253 256 260 265 270 270 271 273 278 284 288 289 292 294 297 298 300 304 309 312 311 311 312 312 312 311 312 313 311 308 305 305 305 304 304 304 304 302 301
252 250 252 251 253 256 259 262 265 263 265 269 273 276 281 284 287 292 295 296 298 301 305 306 307 307 307 309 310 309 311 313 311 309 307 306 305 305 305 307 307 306 304
252 251 251 250 252 254 255 258 261 261 265 270 272 274 277 282 287 292 296 297 297 298 301 304 305 305 307 308 308 310 313 315 315 313 313 311 310 308 307 307 308 308 308
248 250 250 250 254 255 256 255 257 261 264 266 269 272 276 281 285 289 293 296 297 296 298 302 304 304 305 307 307 310 313 314 314 313 313 313 312 313 312 312 311 311 310
244 247 249 251 254 259 262 261 259 260 262 265 267 270 275 280 283 286 290 294 296 295 296 298 301 303 303 304 304 308 312 312 311 311 313 314 313 313 313 312 311 311 312
243 247 250 252 256 259 261 260 259 259 262 264 266 268 273 278 282 285 289 292 294 296 297 299 300 302 303 304 305 307 309 308 308 309 312 314 313 312 312 312 312 312 313
243 248 251 253 255 257 259 259 260 261 262 264 266 269 273 277 279 282 285 286 289 292 296 298 298 301 303 304 303 302 304 305 306 307 309 310 311 311 311 311 311 312 313
246 248 251 254 256 256 259 261 260 260 260 263 267 269 274 276 278 280 281 281 285 288 292 296 298 299 300 302 303 303 303 305 306 307 307 308 309 310 310 311 311 311 312
249 251 253 254 256 257 259 260 260 262 264 268 270 270 272 277 279 283 283 281 284 287 290 293 294 296 298 300 302 303 304 305 306 307 308 308 308 309 309 310 311 311 312
252 252 253 256 258 259 262 263 264 265 266 267 269 271 272 275 278 281 282 283 285 287 290 292 293 295 297 299 301 302 302 303 305 307 307 307 309 310 310 311 311 312 313
252 253 255 256 257 261 265 266 266 265 266 269 271 272 273 274 276 279 280 283 287 289 291 293 294 296 296 297 298 300 301 301 302 304 305 306 308 310 310 310 309 310 313
254 256 257 257 259 262 266 268 268 266 266 269 271 273 274 276 277 278 281 285 288 290 293 295 295 295 296 297 298 299 300 301 302 303 303 304 307 309 310 310 310 310 312
Height
5813 5812 5811 5809 5808 5806 5805 5803 5802 5801 5799 5798 5796 5795 5793 5792 5790 5788 5787 5786 5785 5784 5783 5783 5782 5782 5782 5782 5782 5782 5782 5782 5782 5782 5782 5781 5781 5780 5780 5779 5779 5779 5779
5809 5808 5806 5805 5804 5802 5800 5799 5798 5797 5795 5794 5792 5791 5789 5788 5786 5784 5782 5781 5780 5779 5778 5777 5777 5776 5776 5776 5776 5775 5775 5775 5776 5775 5775 5775 5774 5774 5773 5773 5772 5772 5771
5804 5803 5802 5800 5799 5797 5796 5794 5794 5793 5791 5790 5789 5787 5786 5784 5782 5780 5778 5777 5775 5774 5773 5772 5772 5771 5770 5770 5770 5769 5769 5769 5769 5769 5769 5768 5768 5767 5766 5766 5765 5764 5763
5799 5798 5797 5796 5795 5793 5792 5791 5790 5789 5787 5786 5785 5783 5782 5780 5778 5776 5774 5772 5771 5770 5768 5767 5766 5765 5764 5764 5763 5763 5763 5763 5763 5763 5762 5762 5761 5760 5760 5759 5758 5757 5756
5794 5793 5792 5792 5790 5789 5788 5787 5786 5785 5783 5782 5781 5779 5778 5776 5774 5772 5770 5768 5767 5765 5764 5763 5761 5760 5759 5758 5758 5757 5757 5757 5757 5757 5756 5755 5755 5754 5753 5752 5751 5750 5749
5789 5788 5787 5787 5786 5785 5784 5783 5781 5780 5779 5778 5777 5776 5774 5772 5770 5768 5766 5764 5763 5761 5760 5758 5757 5755 5754 5753 5752 5752 5752 5752 5751 5751 5751 5750 5749 5748 5747 5745 5744 5743 5742
5783 5783 5782 5782 5781 5780 5780 5779 5777 5776 5775 5774 5773 5772 5770 5768 5766 5764 5762 5760 5759 5757 5755 5754 5752 5750 5749 5748 5747 5747 5746 5746 5746 5745 5744 5743 5743 5742 5740 5739 5737 5736 5734
5777 5777 5777 5776 5776 5776 5775 5774 5773 5772 5772 5770 5769 5768 5766 5764 5763 5761 5759 5757 5755 5753 5752 5750 5747 5746 5744 5743 5743 5742 5741 5740 5740 5739 5739 5738 5737 5735 5734 5733 5731 5729 5728
5771 5771 5771 5771 5771 5771 5771 5770 5769 5768 5768 5766 5765 5764 5763 5761 5759 5757 5755 5753 5752 5750 5748 5746 5744 5742 5740 5739 5738 5737 5736 5735 5734 5733 5733 5732 5731 5729 5728 5726 5725 5723 5722
5765 5766 5766 5766 5766 5766 5766 5766 5765 5764 5763 5763 5762 5760 5759 5757 5755 5753 5751 5750 5748 5746 5744 5742 5740 5738 5736 5734 5733 5732 5732 5731 5730 5728 5727 5726 5725 5724 5722 5720 5718 5717 5715
5760 5761 5761 5761 5761 5762 5762 5761 5761 5760 5759 5759 5758 5757 5755 5754 5752 5750 5748 5747 5745 5743 5741 5739 5737 5735 5732 5731 5729 5728 5727 5726 5725 5724 5722 5721 5719 5718 5716 5714 5712 5710 5708
5755 5755 5756 5756 5756 5757 5757 5757 5757 5756 5755 5754 5754 5753 5751 5750 5748 5746 5745 5743 5742 5740 5738 5736 5734 5732 5730 5728 5726 5725 5723 5722 5720 5719 5718 5716 5714 5712 5710 5708 5706 5704 5702
5749 5750 5750 5751 5751 5752 5752 5752 5752 5752 5751 5750 5750 5749 5748 5746 5745 5743 5741 5740 5738 5737 5735 5733 5731 5729 5727 5725 5723 5721 5720 5718 5716 5715 5713 5711 5709 5707 5704 5702 5700 5698 5695
5744 5744 5745 5746 5746 5746 5747 5747 5747 5747 5747 5746 5746 5745 5744 5743 5741 5740 5738 5737 5735 5733 5732 5730 5728 5726 5724 5722 5720 5718 5716 5714 5712 5710 5708 5706 5704 5702 5699 5697 5694 5692 5690
5738 5739 5739 5740 5741 5741 5742 5742 5743 5743 5742 5742 5741 5741 5740 5739 5738 5736 5735 5733 5732 5730 5729 5727 5725 5723 5721 5719 5717 5715 5712 5710 5708 5706 5704 5702 5699 5697 5694 5692 5689 5686 5683
5732 5733 5734 5735 5736 5736 5737 5737 5737 5738 5737 5737 5737 5736 5735 5734 5733 5732 5731 5729 5728 5727 5725 5724 5722 5720 5718 5715 5713 5711 5708 5706 5704 5701 5699 5696 5694 5692 5689 5686 5683 5680 5677
5727 5728 5729 5730 5730 5731 5732 5732 5733 5733 5733 5732 5732 5731 5731 5730 5729 5728 5727 5725 5724 5723 5721 5720 5718 5716 5714 5711 5709 5706 5704 5702 5699 5697 5694 5691 5689 5686 5683 5680 5677 5673 5670
5722 5723 5724 5725 5726 5726 5727 5727 5727 5728 5728 5727 5727 5727 5726 5726 5725 5724 5723 5721 5719 5718 5717 5715 5713 5711 5709 5707 5705 5702 5700 5698 5695 5692 5690 5687 5683 5680 5677 5674 5670 5667 5664
5717 5718 5719 5720 5720 5721 5721 5722 5722 5722 5722 5722 5722 5722 5721 5721 5720 5719 5718 5716 5715 5713 5712 5710 5709 5706 5704 5702 5700 5698 5695 5693 5690 5687 5684 5681 5678 5675 5672 5668 5665 5661 5658
5712 5713 5714 5714 5715 5715 5715 5716 5716 5717 5717 5717 5717 5717 5716 5715 5714 5713 5712 5711 5710 5708 5707 5705 5703 5701 5699 5697 5695 5693 5690 5688 5685 5682 5679 5676 5673 5669 5666 5663 5659 5656 5652
5707 5708 5708 5709 5709 5709 5709 5710 5711 5711 5711 5711 5711 5710 5710 5709 5708 5708 5707 5705 5704 5703 5702 5700 5698 5696 5694 5692 5690 5687 5685 5682 5680 5677 5674 5670 5667 5664 5660 5657 5653 5650 5646
5701 5702 5703 5703 5704 5704 5704 5705 5705 5705 5705 5705 5704 5704 5703 5703 5702 5702 5701 5700 5698 5697 5696 5694 5692 5691 5688 5686 5684 5682 5679 5677 5674 5671 5668 5665 5662 5658 5654 5651 5647 5644 5640
5696 5696 5697 5698 5699 5699 5699 5698 5698 5699 5699 5699 5698 5698 5697 5697 5696 5696 5695 5694 5693 5691 5690 5688 5686 5684 5682 5680 5678 5676 5674 5671 5668 5665 5662 5659 5655 5652 5648 5644 5641 5638 5634
5690 5691 5692 5692 5693 5693 5693 5693 5693 5692 5692 5692 5692 5692 5691 5691 5690 5689 5688 5687 5686 5685 5683 5682 5680 5678 5676 5674 5672 5670 5667 5665 5662 5659 5655 5652 5649 5645 5641 5638 5635 5631 5627
5683 5684 5685 5686 5686 5687 5687 5687 5687 5686 5686 5686 5686 5685 5685 5685 5684 5683 5682 5681 5680 5679 5677 5675 5674 5672 5670 5668 5665 5663 5661 5658 5655 5652 5648 5645 5642 5639 5635 5632 5628 5625 5621
5678 5678 5679 5679 5680 5680 5680 5680 5680 5680 5680 5679 5679 5679 5679 5679 5678 5677 5676 5675 5674 5673 5671 5669 5667 5665 5663 5661 5659 5656 5654 5651 5648 5645 5642 5639 5636 5632 5629 5626 5622 5619 5615